Погода в Самодеде

Россия / Архангельская область     63°36′40″N   40°30′45″E
темп.,
°C
ветер,
м/с
пор.,
м/с
влажн.,
%
обл.,
%
осадки,
мм/ч
давл.,
гПа
погр.,
м
22 апреля, чт
чт2200:00+3юв51296100 0.8 1006862
03:00+3ююв41196100 1.3 1005757
06:00+2ю4109596 0.6 1004712
09:00+4ю4979100 0.8 1005990
12:00+3ю5993100 0.4 1005760
15:00+5ююз4868100 0.6 10051313
18:00+5юз477299 0.4 10061100
21:00+2юз4109194 0.5 1009637
23 апреля, пт
пт2300:00+3юз4879100 0.0 1010858
03:00+3ююз2886100 0.0 1012343
06:00+2ю259319 0.0 1013182
09:00+8юв357223 0.0 1013511
12:00+12юв475911 0.0 10131132
15:00+14ююв485699 0.3 10121453
18:00+13юв51065100 0.8 10111091
21:00+11юв51375100 0.9 1011650
24 апреля, сб
сб2400:00+9ююв41281100 0.0 1011550
03:00+8ююв389378 0.1 1012276
06:00+8юв379399 0.0 1013403
09:00+11юв487558 0.0 1012743
12:00+15юв6115286 0.3 10111871
15:00+14юв5104986 0.5 10102072
18:00+14юв5104928 0.0 10091778
21:00+10вюв51265100 0.1 1009718
25 апреля, вс
вс2500:00+8вюв41271100 0.0 1009775
03:00+7в41176100 0.0 1008593
06:00+6в41079100 0.0 1007663
09:00+7в4873100 0.0 1006904
12:00+6в4791100 0.3 10051015
15:00+6в4893100 1.1 1005976
18:00+6св2687100 0.2 1004417
21:00+5в3694100 0.8 1004805
26 апреля, пн
пн2600:00+5всв2596100 0.7 1003860
03:00+5всв2595100 1.1 1002730
06:00+4всв2596100 0.4 1001762
09:00+4всв2497100 1.6 1001784
12:00+4всв2396100 0.9 1001781
15:00+4вюв1394100 1.4 1001683
18:00+4юв1196100 0.6 1001212
21:00+4ююв1196100 0.9 100129